Weather History for North Island, CA

Change the Weather History Date:

Wednesday, December 12, 2012

  Actual Average Record
Temperature  
Mean Temperature 58 °F -  
Max Temperature 66 °F 63 °F 84 °F (2010)
Min Temperature 51 °F 47 °F 43 °F (1998)
Degree Days  
Heating Degree Days 6    
Growing Degree Days 8 (Base 50)    
Moisture  
Dew Point 52 °F    
Average Humidity 74    
Maximum Humidity 87    
Minimum Humidity 56    
Precipitation  
Precipitation 0.00 in - - ()
Sea Level Pressure  
Sea Level Pressure 29.92 in    
Wind  
Wind Speed 6 mph (SSE)    
Max Wind Speed 15 mph    
Max Gust Speed 25 mph    
Visibility 8 miles    
Events      
Averages and records for this station are not official NWS values.
T = Trace of Precipitation, MM = Missing Value Source: NWS Daily Summary

Daily Weather History Graph

Daily Weather History Graph

Search for Another Location

Airport:

Trip Planner

Search our weather history database for the weather conditions in past years. The results will help you decide how hot, cold, wet, or windy it might be!

Date:

Astronomy

Dec. 12, 2012 Rise Set
Actual Time 6:41 AM PST 4:43 PM PST
Civil Twilight 6:14 AM PST 5:10 PM PST
Nautical Twilight 5:44 AM PST 5:41 PM PST
Astronomical Twilight 5:14 AM PST 6:11 PM PST
Moon 5:52 AM PST (12/12) 4:24 PM PST (12/12)
Length of Visible Light 10h 56m
Length of Day
10h 01m
Waning Crescent, 0% of the Moon is Illuminated
Dec 12
Waning Crescent
Dec 13
New
Dec 19
First Quarter
Dec 28
Full
Jan 4
Last Quarter

Hourly Weather History & Observations

Time (PST) Temp. Dew Point Humidity Pressure Visibility Wind Dir Wind Speed Gust Speed Precip Events Conditions
12:52 AM 57.0 °F 53.1 °F 87% 29.99 in 6.0 mi ESE 4.6 mph - N/A   Mostly Cloudy
1:52 AM 55.9 °F 52.0 °F 87% 29.97 in 6.0 mi ESE 9.2 mph - N/A   Mostly Cloudy
2:52 AM 55.9 °F 51.1 °F 84% 29.95 in 6.0 mi ESE 8.1 mph - N/A   Mostly Cloudy
3:52 AM 55.9 °F 48.9 °F 77% 29.96 in 7.0 mi Calm Calm - N/A   Mostly Cloudy
4:36 AM 55.4 °F 48.2 °F 77% 29.95 in 7.0 mi Calm Calm - N/A   Scattered Clouds
4:52 AM 51.1 °F 46.9 °F 86% 29.95 in 7.0 mi Calm Calm - N/A   Partly Cloudy
5:52 AM 54.0 °F 46.9 °F 77% 29.97 in 7.0 mi East 4.6 mph - N/A   Mostly Cloudy
6:52 AM 53.1 °F 46.0 °F 77% 29.97 in 7.0 mi Calm Calm - N/A   Mostly Cloudy
7:52 AM 55.9 °F 48.9 °F 77% 29.97 in 7.0 mi Calm Calm - N/A   Mostly Cloudy
8:52 AM 61.0 °F 48.0 °F 62% 29.98 in 7.0 mi East 4.6 mph - N/A   Mostly Cloudy
9:52 AM 63.0 °F 50.0 °F 63% 29.97 in 8.0 mi SE 6.9 mph - N/A   Mostly Cloudy
10:52 AM 64.9 °F 51.1 °F 61% 29.96 in 9.0 mi SE 6.9 mph - N/A   Mostly Cloudy
11:52 AM 66.0 °F 50.0 °F 56% 29.92 in 9.0 mi South 5.8 mph - N/A   Mostly Cloudy
12:52 PM 66.0 °F 54.0 °F 65% 29.90 in 10.0 mi SSW 8.1 mph - N/A   Mostly Cloudy
1:52 PM 66.0 °F 54.0 °F 65% 29.89 in 10.0 mi SSW 8.1 mph - N/A   Mostly Cloudy
2:52 PM 64.0 °F 54.0 °F 70% 29.89 in 10.0 mi SSW 6.9 mph - N/A   Mostly Cloudy
3:52 PM 64.0 °F 53.1 °F 67% 29.89 in 10.0 mi SSW 8.1 mph - N/A   Mostly Cloudy
4:52 PM 63.0 °F 53.1 °F 70% 29.88 in 10.0 mi SSE 5.8 mph - N/A   Mostly Cloudy
5:52 PM 62.1 °F 54.0 °F 75% 29.88 in 10.0 mi SSE 10.4 mph - N/A   Mostly Cloudy
6:52 PM 62.1 °F 55.0 °F 78% 29.88 in 10.0 mi SSE 12.7 mph - N/A   Mostly Cloudy
7:52 PM 62.1 °F 55.0 °F 78% 29.88 in 10.0 mi SSE 11.5 mph - N/A   Mostly Cloudy
8:52 PM 62.1 °F 55.0 °F 78% 29.88 in 10.0 mi SSE 12.7 mph 25.3 mph N/A   Mostly Cloudy
9:52 PM 62.1 °F 54.0 °F 75% 29.88 in 10.0 mi SSE 10.4 mph - N/A   Mostly Cloudy
10:52 PM 62.1 °F 55.0 °F 78% 29.88 in 8.0 mi SSE 15.0 mph 21.9 mph N/A   Mostly Cloudy
11:18 PM 62.6 °F 55.4 °F 77% 29.88 in 8.0 mi South 12.7 mph - 0.00 in   Light Drizzle
11:41 PM 62.6 °F 53.6 °F 72% 29.87 in 9.0 mi South 11.5 mph - 0.00 in   Mostly Cloudy
11:52 PM 62.1 °F 54.0 °F 75% 29.87 in 9.0 mi SSE 11.5 mph - 0.00 in   Light Drizzle